Location: Newark
(7.0858°N, 171.3717°E)
Time: 13:36:45
(UTC+00:00)

Vanguard 1 Rocket - Pass Details

Date: 26 November 2020
Orbit: 655 x 4222 km, 34.3° (Epoch: 23 January)

Event Time Altitude Azimuth Distance (km) Brightness Sun altitude
Rises 10:10:48 0° 220° (SW) 6,314 12.2 -55.4°
Reaches altitude 10° 10:14:27 10° 216° (SW) 5,690 11.8 -56.2°
Enters shadow 10:28:59 53° 175° (S) 4,300 10.5 -59.3°
